Weather History for KMOP - October, 2013

Change the Weather History Date:

Saturday, October 12, 2013

  Actual Average (KAMN) Record (KAMN)
Temperature  
Mean Temperature 60 °F -  
Max Temperature 79 °F 61 °F 80 °F (2008)
Min Temperature 41 °F 39 °F 26 °F (2012)
Degree Days  
Heating Degree Days 5    
Growing Degree Days 10 (Base 50)    
Moisture  
Dew Point 48 °F    
Average Humidity 74    
Maximum Humidity 96    
Minimum Humidity 33    
Precipitation  
Precipitation 0.00 in - - ()
Sea Level Pressure  
Sea Level Pressure 30.05 in    
Wind  
Wind Speed 2 mph (South)    
Max Wind Speed 12 mph    
Max Gust Speed 22 mph    
Visibility 7 miles    
Events Fog , Rain    
Averages and records for this station are not official NWS values.
T = Trace of Precipitation, MM = Missing Value Source: NWS Daily Summary

Daily Weather History Graph

Daily Weather History Graph

Search for Another Location

Airport or City:

Trip Planner

Search our weather history database for the weather conditions in past years. The results will help you decide how hot, cold, wet, or windy it might be!

Date:

Astronomy

Oct. 12, 2013 Rise Set
Actual Time 7:49 AM EDT 7:00 PM EDT
Civil Twilight 7:20 AM EDT 7:28 PM EDT
Nautical Twilight 6:47 AM EDT 8:02 PM EDT
Astronomical Twilight 6:14 AM EDT 8:35 PM EDT
Moon 3:19 PM EDT (10/12) 12:40 AM EDT (10/12)
Length of Visible Light 12h 08m
Length of Day
11h 10m
First Quarter, 58% of the Moon is Illuminated
Oct 12
First Quarter
Oct 18
Full
Oct 26
Last Quarter
Nov 3
New
Nov 10
First Quarter

Hourly Weather History & Observations

Time (EDT) Temp. Dew Point Humidity Pressure Visibility Wind Dir Wind Speed Gust Speed Precip Events Conditions
12:15 AM 47.8 °F 46.2 °F 94% 30.08 in 7.0 mi Calm Calm - N/A   Clear
12:36 AM 47.3 °F 45.9 °F 95% 30.08 in 3.0 mi Calm Calm - N/A   Clear
12:55 AM 46.8 °F 45.3 °F 95% 30.08 in 2.5 mi Calm Calm - N/A   Clear
1:15 AM 46.6 °F 45.0 °F 94% 30.08 in 1.2 mi Calm Calm - N/A   Mist
1:36 AM 45.9 °F 44.6 °F 95% 30.08 in 5.0 mi Calm Calm - N/A   Clear
1:55 AM 45.3 °F 44.1 °F 95% 30.08 in 2.0 mi Calm Calm - N/A   Clear
2:15 AM 44.8 °F 43.5 °F 95% 30.08 in 1.5 mi Calm Calm - N/A   Mist
2:36 AM 44.8 °F 43.5 °F 95% 30.07 in 3.0 mi Calm Calm - N/A   Clear
2:55 AM 45.1 °F 43.9 °F 95% 30.08 in 5.0 mi Calm Calm - N/A   Clear
3:15 AM 44.2 °F 43.0 °F 95% 30.08 in 1.5 mi Calm Calm - N/A   Mist
3:36 AM 43.9 °F 42.8 °F 96% 30.08 in 0.5 mi Calm Calm - N/A Fog Fog
3:55 AM 43.5 °F 42.1 °F 95% 30.08 in 1.0 mi Calm Calm - N/A   Mist
4:15 AM 43.3 °F 42.1 °F 95% 30.07 in 0.5 mi Calm Calm - N/A Fog Fog
4:36 AM 43.2 °F 41.9 °F 95% 30.08 in 0.5 mi Calm Calm - N/A Fog Fog
4:55 AM 43.0 °F 41.7 °F 95% 30.07 in 0.5 mi Calm Calm - N/A Fog Fog
5:15 AM 42.8 °F 41.5 °F 95% 30.08 in - Calm Calm - N/A   Unknown
5:36 AM 42.6 °F 41.4 °F 95% 30.08 in 0.8 mi Calm Calm - N/A   Mist
5:55 AM 42.8 °F 41.7 °F 96% 30.08 in 10.0 mi Calm Calm - N/A   Clear
6:15 AM 43.0 °F 41.7 °F 95% 30.08 in 3.0 mi Calm Calm - N/A   Clear
6:36 AM 42.1 °F 40.6 °F 95% 30.09 in 1.2 mi Calm Calm - N/A   Mist
6:55 AM 42.4 °F 41.2 °F 95% 30.09 in 5.0 mi Calm Calm - N/A   Clear
7:15 AM 41.9 °F 40.6 °F 95% 30.09 in 0.5 mi Calm Calm - N/A Fog Fog
7:36 AM 41.2 °F 40.1 °F 96% 30.08 in 0.5 mi Calm Calm - N/A Fog Fog
7:55 AM 41.0 °F 39.7 °F 95% 30.08 in 0.8 mi Calm Calm - N/A   Mist
8:15 AM 41.9 °F 40.8 °F 96% 30.08 in 5.0 mi Calm Calm - N/A   Clear
8:36 AM 43.3 °F 42.3 °F 96% 30.09 in 5.0 mi Calm Calm - N/A   Clear
8:55 AM 45.7 °F 44.6 °F 96% 30.09 in 5.0 mi Calm Calm - N/A   Clear
9:15 AM 46.9 °F 45.7 °F 95% 30.09 in 7.0 mi Calm Calm - N/A   Clear
9:35 AM 48.7 °F 47.5 °F 95% 30.09 in 10.0 mi Calm Calm - N/A   Clear
9:55 AM 50.0 °F 48.4 °F 94% 30.09 in 10.0 mi Calm Calm - N/A   Clear
10:16 AM 52.9 °F 50.7 °F 92% 30.08 in 10.0 mi Calm Calm - N/A   Clear
10:35 AM 55.2 °F 51.4 °F 87% 30.07 in 10.0 mi Calm Calm - N/A   Clear
10:55 AM 59.0 °F 53.2 °F 81% 30.07 in 10.0 mi SE 4.6 mph - N/A   Clear
11:16 AM 61.9 °F 53.4 °F 74% 30.07 in 10.0 mi SSE 4.6 mph - N/A   Clear
11:35 AM 64.6 °F 53.8 °F 68% 30.07 in 10.0 mi ESE 4.6 mph - N/A   Clear
11:55 AM 66.7 °F 53.2 °F 62% 30.06 in 10.0 mi ESE 3.5 mph - N/A   Clear
12:15 PM 69.6 °F 52.0 °F 53% 30.05 in 10.0 mi ESE 3.5 mph - N/A   Clear
12:35 PM 72.3 °F 50.2 °F 46% 30.05 in 10.0 mi South 3.5 mph - N/A   Clear
12:56 PM 73.6 °F 50.4 °F 44% 30.04 in 10.0 mi Calm Calm - N/A   Clear
1:15 PM 75.0 °F 49.8 °F 41% 30.03 in 10.0 mi SSE 6.9 mph - N/A   Clear
1:35 PM 76.5 °F 50.2 °F 40% 30.02 in 10.0 mi SSE 9.2 mph - N/A   Clear
1:56 PM 77.2 °F 49.3 °F 37% 30.02 in 10.0 mi South 9.2 mph - N/A   Clear
2:15 PM 77.9 °F 48.7 °F 36% 30.01 in 10.0 mi South 9.2 mph 16.1 mph N/A   Clear
2:35 PM 77.9 °F 47.8 °F 35% 30.01 in 10.0 mi SSE 5.8 mph - N/A   Clear
2:56 PM 78.4 °F 48.0 °F 34% 30.01 in 10.0 mi South 10.4 mph - N/A   Clear
3:15 PM 78.8 °F 48.2 °F 34% 30.00 in 10.0 mi SSE 11.5 mph 19.6 mph N/A   Clear
3:35 PM 78.8 °F 48.2 °F 34% 30.00 in 10.0 mi South 8.1 mph 17.3 mph N/A   Clear
3:56 PM 79.0 °F 47.8 °F 33% 29.99 in 10.0 mi South 11.5 mph 21.9 mph N/A   Clear
4:15 PM 79.0 °F 47.5 °F 33% 29.99 in 10.0 mi SSE 11.5 mph - N/A   Clear
4:35 PM 77.5 °F 46.9 °F 34% 29.99 in 10.0 mi South 8.1 mph 18.4 mph N/A   Clear
4:56 PM 76.5 °F 46.4 °F 34% 29.98 in 10.0 mi South 8.1 mph 16.1 mph N/A   Clear
5:15 PM 76.1 °F 47.5 °F 36% 29.99 in 10.0 mi South 8.1 mph - N/A   Clear
5:35 PM 75.4 °F 48.0 °F 38% 29.99 in 10.0 mi South 5.8 mph - N/A   Clear
5:56 PM 74.3 °F 48.7 °F 40% 30.00 in 10.0 mi South 3.5 mph - N/A   Clear
6:15 PM 73.8 °F 49.3 °F 42% 30.00 in 10.0 mi South 3.5 mph - N/A   Clear
6:35 PM 73.0 °F 49.8 °F 44% 30.01 in 10.0 mi SSW 3.5 mph - N/A   Clear
6:56 PM 71.8 °F 50.2 °F 46% 30.01 in 10.0 mi Calm Calm - N/A   Clear
7:15 PM 66.9 °F 53.6 °F 62% 30.02 in 10.0 mi Calm Calm - N/A   Clear
7:35 PM 63.9 °F 54.0 °F 70% 30.02 in 10.0 mi Calm Calm - N/A   Clear
7:56 PM 62.6 °F 54.5 °F 75% 30.02 in 10.0 mi Calm Calm - N/A   Scattered Clouds
8:15 PM 61.2 °F 54.0 °F 77% 30.02 in 10.0 mi Calm Calm - N/A   Scattered Clouds
8:35 PM 60.4 °F 54.0 °F 79% 30.02 in 10.0 mi Calm Calm - N/A   Scattered Clouds
8:55 PM 61.5 °F 54.1 °F 77% 30.02 in 10.0 mi Calm Calm - N/A   Mostly Cloudy
9:15 PM 65.3 °F 55.2 °F 70% 30.04 in 10.0 mi West 6.9 mph - N/A   Overcast
9:35 PM 64.8 °F 57.0 °F 76% 30.06 in 10.0 mi West 8.1 mph - N/A   Overcast
9:55 PM 64.4 °F 58.3 °F 80% 30.06 in 10.0 mi WSW 5.8 mph - N/A   Overcast
10:15 PM 63.9 °F 59.0 °F 84% 30.05 in 10.0 mi WSW 4.6 mph - N/A   Overcast
10:36 PM 63.5 °F 59.2 °F 86% 30.06 in 10.0 mi SW 5.8 mph - N/A Rain Light Rain
10:55 PM 63.0 °F 59.4 °F 88% 30.06 in 10.0 mi SW 6.9 mph - N/A Rain Light Rain
11:15 PM 62.6 °F 59.7 °F 90% 30.06 in 10.0 mi SW 5.8 mph - N/A   Overcast
11:36 PM 62.6 °F 59.9 °F 91% 30.07 in 10.0 mi SW 5.8 mph - N/A   Overcast
11:55 PM 62.6 °F 59.9 °F 91% 30.07 in 10.0 mi SW 6.9 mph - N/A   Overcast